Location: Gad�tanya
(48.0500°N, 20.8500°E)
Time: 10:26:53
(UTC+00:00)

SeaSat 1 - Pass Details

Date: 05 July 2020
Orbit: 744 x 748 km, 108.0° (Epoch: 14 August)

Event Time Altitude Azimuth Distance (km) Brightness Sun altitude
Rises 23:41:58 0° 33° (NNE) 3,200 7.1 -18.0°
Reaches altitude 10° 23:44:19 10° 38° (NE) 2,272 6.0 -17.9°
Maximum altitude 23:49:07 49° 114° (ESE) 959 2.9 -17.7°
Enters shadow 23:51:20 29° 173° (S) 1,354 3.3 -17.6°
